sat.trackr.live / text

‹ back to catalog

STARLINK-5820

NORAD 55781 · 2023-028AS

PAYLOAD ACTIVE UNKNOWN

§ Identity

Operator
Country
US
Launch date
2023-03-03
Launch site
AFWTR
Launch vehicle
Mass (kg)
RCS (m²)

Purposes: comms

External: N2YO · Heavens-Above · Gunter

§ Orbital elements

Epoch: 2026-09-20T19:36:35.248896Z

Period
96.11 min
Inclination
69.9983°
Eccentricity
0.0002711
Mean motion
14.98328976 rev/d
Perigee alt
570.2 km
Apogee alt
573.9 km
Semi-major
6,950.2 km
B*
2.5213e-5
RAAN
92.4118°
Arg perigee
267.4554°
Mean anomaly
92.6294°
Rev number
19,576

§ Raw data

STARLINK-58201 55781U 23028AS  26263.81707464  .00000208  00000+0  25213-4 0  99932 55781  69.9983  92.4118 0002711 267.4554  92.6294 14.98328976195768

JSON: /api/v1/satellites/55781 · /tle

For live sub-satellite position, see the globe view (requires WebGL).

§ Visibility from observer

Set your observer location to see the next 7 days of passes ≥ 10°. The values pass through the URL so the page stays shareable.

No JS? Fill the form by hand. The geolocation button needs JavaScript.